Regional Weather Roundup
Issued by NWS

Home | Current Version | Previous Version | Graphics & Text | Print | Product List | Glossary On
Versions: 1 2 3 4 5 6 7 8 9 10 11 12 13 14 15 16 17 18 19 20 21 22 23 24 25 26 27 28 29 30 31 32 33 34 35 36 37 38 39 40 41 42 43 44 45 46 47 48 49 50
000
ASUS45 KABQ 172301
RWRNM
NEW MEXICO REGIONAL WEATHER ROUNDUP
NATIONAL WEATHER SERVICE ALBUQUERQUE NM
500 PM MDT TUE OCT 17 2017

NOTE: "FAIR" MEANS FEW OR NO CLOUDS BELOW 12,000 FEET AGL WITH NO
       SIGNIFICANT WEATHER OR OBSTRUCTIONS TO VISION.

      THIS PRODUCT IS RELEASED AS TWO VERSIONS.  ONE VERSION NEAR
      THE TOP OF THE HOUR CONTAINING PRELIMINARY DATA FROM ALBUQUERQUE
      AND OTHER STATIONS.  A FINAL VERSION WITH ADDITIONAL DATA IS
      ISSUED ABOUT 10 MINUTES AFTER THE HOUR.

NMZ501-503-504-510>518-180000-
NORTHWEST PLATEAU/NORTHCENTRAL MOUNTAINS

CITY           SKY/WX    TMP DP  RH WIND       PRES   REMARKS
FARMINGTON     FAIR      72   5   7 W9        30.22F
LOS ALAMOS     FAIR      66  23  19 SE7       30.30F
SANTA FE       FAIR      71  24  17 W8        30.25F
TAOS           FAIR      69  18  14 SW7       30.30F
ANGEL FIRE     FAIR      62  14  15 W10       30.35S

$$
NMZ402-403-502-505>509-180000-
WESTCENTRAL MOUNTAINS/SOUTHWEST MOUNTAINS

CITY           SKY/WX    TMP DP  RH WIND       PRES   REMARKS
GALLUP         FAIR      75  20  12 SW12      30.26F
GRANTS         FAIR      74  10   8 N8        30.28F
SILVER CITY    PTSUNNY   77  42  28 S13       30.22F

$$
NMZ407-409-411-412-180000-
SOUTHERN DESERTS

CITY           SKY/WX    TMP DP  RH WIND       PRES   REMARKS
DEMING         FAIR      81  44  27 S6        30.15F
LAS CRUCES     FAIR      79  41  25 E6        30.18F
ALAMOGORDO     FAIR      81  37  21 W3        30.16F
T OR C         FAIR      80  37  21 S9        30.17F

$$
NMZ519>523-180000-
CENTRAL VALLEYS/CENTRAL HIGHLANDS

CITY           SKY/WX    TMP DP  RH WIND       PRES   REMARKS
ALBUQUERQUE    FAIR      75  20  12 CALM      30.21F
DOUBLE EAGLE   MOSUNNY   75  19  12 W8        30.24F
MORIARTY ARPT  FAIR      74  23  14 W9        30.25F
CLINES CORNERS FAIR      69  15  12 W18       30.28F
BELEN          FAIR      75  24  15 CALM      30.20F
SOCORRO        FAIR      77  27  15 E5        30.19S

$$
NMZ524>526-539-540-180000-
SOUTHCENTRAL MOUNTAINS

CITY           SKY/WX    TMP DP  RH WIND       PRES   REMARKS
RUIDOSO        FAIR      70  25  18 NW10      30.31F

$$
NMZ527>531-180000-
NORTHEAST HIGHLANDS/NORTHEAST PLAINS

CITY           SKY/WX    TMP DP  RH WIND       PRES   REMARKS
LAS VEGAS      FAIR      71  20  14 S8        30.23F
RATON          FAIR      74  11   9 S8        30.17S
CLAYTON        FAIR      76  25  15 VRB3      30.10F

$$
NMZ532>537-180000-
EASTCENTRAL PLAINS

CITY           SKY/WX    TMP DP  RH WIND       PRES   REMARKS
SANTA ROSA     FAIR      79  22  12 W8        30.11S
TUCUMCARI      FAIR      82  40  22 SW14      30.05F
CANNON AFB     FAIR      78  36  22 S13       30.12F
CLOVIS AIRPORT FAIR      78  37  22 SW14      30.12F

$$
NMZ028-029-538-180000-
SOUTHEAST PLAINS

CITY           SKY/WX    TMP DP  RH WIND       PRES   REMARKS
ROSWELL        FAIR      80  36  20 S9        30.11F
ARTESIA        FAIR      81  41  24 S12G17    30.11S
CARLSBAD       FAIR      81  47  30 S13       30.09F
HOBBS          SUNNY     77  39  25 S10       30.14F


$$



USA.gov is the U.S. government's official web portal to all federal, state and local government web resources and services.